TimeCST,TemperatureF,Dew PointF,Humidity,Sea Level PressureIn,VisibilityMPH,Wind Direction,Wind SpeedMPH,Gust SpeedMPH,PrecipitationIn,Events,Conditions,WindDirDegrees,DateUTC
12:58 AM,49.1,43.0,79,30.26,10.0,ENE,5.8,-,N/A,,Scattered Clouds,60,2013-12-01 06:58:00
1:58 AM,50.2,43.5,78,30.26,10.0,NE,4.6,-,N/A,,Overcast,40,2013-12-01 07:58:00
2:58 AM,48.7,42.3,78,30.24,10.0,ENE,3.5,-,N/A,,Scattered Clouds,60,2013-12-01 08:58:00
3:58 AM,49.5,42.3,76,30.24,10.0,NE,4.6,-,N/A,,Overcast,40,2013-12-01 09:58:00
4:58 AM,49.3,42.1,76,30.25,10.0,NNE,6.9,-,N/A,,Overcast,20,2013-12-01 10:58:00
5:58 AM,48.2,41.4,77,30.24,10.0,ENE,8.1,-,N/A,,Mostly Cloudy,70,2013-12-01 11:58:00
6:58 AM,48.2,41.0,76,30.26,10.0,North,2.3,-,N/A,,Mostly Cloudy,360,2013-12-01 12:58:00
7:17 AM,50.0,41.0,71,30.25,10.0,North,2.3,-,N/A,,Light Drizzle,360,2013-12-01 13:17:00
7:22 AM,50.0,41.0,71,30.25,10.0,North,2.3,-,N/A,,Scattered Clouds,360,2013-12-01 13:22:00
7:58 AM,50.2,42.3,74,30.27,10.0,NNE,5.8,-,0.00,,Overcast,20,2013-12-01 13:58:00
8:58 AM,52.2,41.7,68,30.27,10.0,ENE,3.5,-,N/A,,Overcast,70,2013-12-01 14:58:00
9:58 AM,56.8,43.3,61,30.25,10.0,SSE,2.3,-,N/A,,Mostly Cloudy,160,2013-12-01 15:58:00
10:58 AM,60.1,45.9,59,30.22,10.0,South,5.8,-,N/A,,Clear,180,2013-12-01 16:58:00
11:58 AM,61.9,48.0,60,30.18,10.0,WSW,5.8,-,N/A,,Clear,250,2013-12-01 17:58:00
12:58 PM,63.0,49.5,61,30.15,10.0,SSW,5.8,-,N/A,,Clear,210,2013-12-01 18:58:00
1:58 PM,63.0,50.0,63,30.11,10.0,SSW,5.8,-,N/A,,Clear,210,2013-12-01 19:58:00
2:58 PM,63.0,49.3,61,30.09,10.0,SW,4.6,-,N/A,,Clear,220,2013-12-01 20:58:00
3:58 PM,62.8,49.3,61,30.08,10.0,SW,3.5,-,N/A,,Clear,230,2013-12-01 21:58:00
4:58 PM,60.3,49.8,68,30.07,10.0,WNW,2.3,-,0.00,,Clear,290,2013-12-01 22:58:00
5:58 PM,54.9,50.2,84,30.07,10.0,North,4.6,-,N/A,,Clear,360,2013-12-01 23:58:00
6:58 PM,54.3,49.5,84,30.08,10.0,North,3.5,-,N/A,,Clear,350,2013-12-02 00:58:00
7:58 PM,53.4,49.6,87,30.07,10.0,North,3.5,-,N/A,,Mostly Cloudy,10,2013-12-02 01:58:00
8:58 PM,54.0,49.6,85,30.05,10.0,North,2.3,-,N/A,,Clear,350,2013-12-02 02:58:00
9:58 PM,51.8,48.7,89,30.06,10.0,North,3.5,-,N/A,,Mostly Cloudy,360,2013-12-02 03:58:00
10:58 PM,51.8,48.2,88,30.03,10.0,Calm,Calm,-,N/A,,Mostly Cloudy,0,2013-12-02 04:58:00
11:58 PM,50.4,46.9,88,30.03,10.0,North,6.9,-,N/A,,Scattered Clouds,360,2013-12-02 05:58:00